Weather in Kempten

Germany     47°43′27″N   10°18′47″E
temp.,
°C
wind,
m/s
gust,
m/s
humid.,
%
clouds,
%
prec.,
mm/h
press.,
hPa
HPBL,
m
4 march, thu
thu401:00+3ssw236038 0.0 102735
04:00+4ssw2357100 0.0 102542
07:00+4sw2356100 0.0 102475
10:00+9wsw4848100 0.0 1022553
13:00+11w584881 0.0 10191229
16:00+9w486399 0.1 10181261
19:00+6sw3889100 0.8 1018550
22:00+4ssw3893100 6.8 1019509
5 march, fri
fri501:00+4wsw4993100 7.4 1019600
04:00+3w379787 1.2 1019514
07:00+3w259893 3.6 1020384
10:00+2n2398100 2.6 1021260
13:00+2nne1395100 3.5 1022236
16:00+1ne1297100 0.7 1022236
19:000ne3798100 1.7 1026405
22:00−1ene4995100 0.4 1028598
6 march, sat
sat601:00−4e4129290 0.4 1030472
04:00−3e489288 0.0 1030461
07:00−3e469294 0.1 1031440
10:00−1e4784100 0.0 1029488
13:00+3ene477176 0.0 1028636
16:00+4ene47692 0.0 1027721
19:00−1ene248811 0.0 1028127
22:00−3ese119127 0.0 102924
7 march, sun
sun701:00−2se019414 0.0 102821
04:00−2s11940 0.0 102721
07:00−1sw129246 0.0 102636
10:00+4wsw266594 0.0 1025523
13:00+7w476060 0.0 10221335
16:00+6w467455 0.2 1021998
19:00+1wnw119567 0.4 102230
22:000ese119599 0.1 102355
8 march, mon
mon801:000nne119495 0.2 102345
04:00−2ene119384 0.1 102224
07:00−3ene119372 0.1 102330
10:00+3ene227268 0.0 1023433
13:00+5ene226053 0.0 10221048
16:00+5ene235691 0.0 10211170
19:00−2ene277471 0.0 1023143
22:00−3e24790 0.0 1025102